Location: Street
(51.1247°N, 2.7429°W)
Time: 06:40:06
(UTC+00:00)

SR - Pass Details

Date: 01 December 2020
Orbit: 575 x 880 km, 66.7° (Epoch: 25 January)

Event Time Altitude Azimuth Distance (km) Brightness Sun altitude
Rises 03:17:56 0° 317° (NW) 3,185 - -41.9°
Reaches altitude 10° 03:20:22 10° 309° (NW) 2,306 - -41.6°
Maximum altitude 03:25:13 37° 244° (WSW) 1,238 - -40.9°
Drops below altitude 10° 03:30:23 10° 179° (S) 2,456 - -40.1°
Sets 03:33:04 0° 171° (S) 3,419 - -39.7°
